Flag for Saint Kitts and Nevis Weather past 2 weeks in Basseterre, Saint Kitts and Nevis

Now
84 °F

Passing clouds.


Feels Like: 91 °F
Forecast: N/A
Wind: 13 mph from Northeast

Location: Golden Rock

Current Time: Jul 29, 2014 at 6:00:01 PM

Latest Report: Jul 29, 2014 at 5:00 PM


Visibility: N/A

Pressure: 30.01 "Hg

Humidity: 70%

Dew point: 73 °F

Location of BasseterreLocation

Historic Weather in Basseterre — Graph

°F

Basseterre temperature yesterday

Maximum temperature yesterday: 88 °F (at 10:00 AM)
Minimum temperature yesterday: 81 °F (at 6:00 AM)
Average temperature yesterday: 84 °F

Past Weeks' High & Low Weather Summary

 TemperatureHumidityPressure
High90 °F (Jul 25, 2:00 PM)100% (Jul 14, 9:00 PM)30.12 "Hg (Jul 14, 9:00 PM)
Low77 °F (Jul 14, 9:00 PM)55% (Jul 29, 1:00 PM)29.95 "Hg (Jul 19, 8:00 AM)
Average84 °F77%30.06 "Hg
* Reported Jul 14 4:00 PM — Jul 29 4:00 PM, Basseterre, Weather by CustomWeather, © 2014

Note: Actual official high and low records may vary slightly from our data, if they occured in-between our weather recording intervals... More about our weather records

Advertising

Basseterre weather history for previous 24 hours

 ConditionsComfort  
Time TempWeatherWind HumidityBarometerVisibility
4:00 PM
Jul 29
86 °FPassing clouds.14 mph62%30.01 "HgN/A
3:00 PM88 °FPassing clouds.10 mph62%30.01 "HgN/A
2:00 PM88 °FPassing clouds.12 mph59%30.04 "HgN/A
1:00 PM90 °FPassing clouds.9 mph55%30.04 "HgN/A
12:00 PM88 °FPassing clouds.14 mph59%30.07 "HgN/A
11:00 AM88 °FScattered clouds.12 mph62%30.07 "HgN/A
10:00 AM86 °FPassing clouds.10 mph66%30.07 "HgN/A
9:00 AM84 °FPassing clouds.12 mph70%30.07 "HgN/A
8:00 AM82 °FPassing clouds.9 mph74%30.04 "HgN/A
7:00 AM81 °FPassing clouds.6 mph79%30.04 "HgN/A
6:00 AM81 °FSprinkles. Scattered clouds.9 mph79%30.04 "HgN/A
10:00 PM
Jul 28
81 °FPassing clouds.12 mph79%30.07 "HgN/A
9:00 PM81 °FPassing clouds.9 mph79%30.07 "HgN/A
8:00 PM81 °FPassing clouds.10 mph79%30.07 "HgN/A
7:00 PM82 °FPassing clouds.13 mph74%30.04 "HgN/A
6:00 PM82 °FScattered clouds.13 mph74%30.04 "HgN/A
Weather by CustomWeather, © 2014

See weather overviewHow to use our weather pages